Time,TemperatureF,DewpointF,PressureIn,WindDirection,WindDirectionDegrees,WindSpeedMPH,WindSpeedGustMPH,Humidity,HourlyPrecipIn,Conditions,Clouds,dailyrainin,SoftwareType,DateUTC
2013-04-22 00:02:00,55.4,-99.9,24.98,NNE,14,3.0,5.4,-999,0.00,,,-99.99,FreeWX 2.04,2013-04-22 06:02:00,
2013-04-22 00:07:00,55.0,-99.9,24.98,NE,36,2.0,3.6,-999,0.00,,,-99.99,FreeWX 2.04,2013-04-22 06:07:00,
2013-04-22 00:12:00,55.2,-99.9,24.98,NE,43,2.0,4.0,-999,0.00,,,-99.99,FreeWX 2.04,2013-04-22 06:12:00,
2013-04-22 00:17:00,54.9,3.2,24.98,NE,43,3.0,4.0,12,0.00,,,-99.99,FreeWX 2.04,2013-04-22 06:17:00,
2013-04-22 00:22:00,54.7,3.0,24.98,NE,43,2.0,4.9,12,0.00,,,-99.99,FreeWX 2.04,2013-04-22 06:22:00,
2013-04-22 00:27:00,54.5,3.0,24.98,NE,43,2.0,4.9,12,0.00,,,-99.99,FreeWX 2.04,2013-04-22 06:27:00,
2013-04-22 00:32:00,55.6,3.7,24.98,NE,43,2.0,4.0,12,0.00,,,-99.99,FreeWX 2.04,2013-04-22 06:32:00,
2013-04-22 00:37:00,55.8,3.9,24.98,NE,42,2.0,4.0,12,0.00,,,-99.99,FreeWX 2.04,2013-04-22 06:37:00,
2013-04-22 00:42:00,56.3,4.5,24.98,NE,42,2.0,4.0,12,0.00,,,-99.99,FreeWX 2.04,2013-04-22 06:42:00,
2013-04-22 00:47:00,56.5,4.5,24.98,NE,42,2.0,4.0,12,0.00,,,-99.99,FreeWX 2.04,2013-04-22 06:47:00,
2013-04-22 00:52:00,55.9,4.1,24.98,NE,42,3.0,4.5,12,0.00,,,-99.99,FreeWX 2.04,2013-04-22 06:52:00,
2013-04-22 00:57:00,55.6,3.7,24.98,NE,42,1.0,3.1,12,0.00,,,-99.99,FreeWX 2.04,2013-04-22 06:57:00,
2013-04-22 01:02:00,56.1,4.3,24.98,North,-999,0.0,2.7,12,0.00,,,-99.99,FreeWX 2.04,2013-04-22 07:02:00,
2013-04-22 01:07:00,55.9,4.1,24.98,NE,42,1.0,4.0,12,0.00,,,-99.99,FreeWX 2.04,2013-04-22 07:07:00,
2013-04-22 01:12:00,55.0,8.2,24.98,NE,43,2.0,4.5,15,0.00,,,-99.99,FreeWX 2.04,2013-04-22 07:12:00,
2013-04-22 01:17:00,54.0,7.3,24.98,NE,46,1.0,4.0,15,0.00,,,-99.99,FreeWX 2.04,2013-04-22 07:17:00,
2013-04-22 01:22:00,54.0,11.5,24.98,North,-999,0.0,0.0,18,0.00,,,-99.99,FreeWX 2.04,2013-04-22 07:22:00,
2013-04-22 01:27:00,53.4,10.9,24.98,North,-999,0.0,0.0,18,0.00,,,-99.99,FreeWX 2.04,2013-04-22 07:27:00,
2013-04-22 01:32:00,53.4,10.9,24.98,North,-999,0.0,0.0,18,0.00,,,-99.99,FreeWX 2.04,2013-04-22 07:32:00,
2013-04-22 01:43:00,53.1,13.1,24.98,ENE,62,1.0,3.6,20,0.00,,,-99.99,FreeWX 2.04,2013-04-22 07:43:00,
2013-04-22 01:48:00,53.1,13.1,24.98,ENE,62,1.0,2.7,20,0.00,,,-99.99,FreeWX 2.04,2013-04-22 07:48:00,
2013-04-22 01:53:00,52.9,16.2,24.98,North,-999,0.0,4.0,23,0.00,,,-99.99,FreeWX 2.04,2013-04-22 07:53:00,
2013-04-22 01:58:00,52.9,18.0,24.98,NE,41,2.0,6.7,25,0.00,,,-99.99,FreeWX 2.04,2013-04-22 07:58:00,
2013-04-22 02:03:00,53.2,18.3,24.98,NNW,329,3.0,5.4,25,0.00,,,-99.99,FreeWX 2.04,2013-04-22 08:03:00,
2013-04-22 02:08:00,53.1,19.0,24.98,NW,310,2.0,4.5,26,0.00,,,-99.99,FreeWX 2.04,2013-04-22 08:08:00,
2013-04-22 02:13:00,52.9,18.9,24.98,NW,307,3.0,4.5,26,0.00,,,-99.99,FreeWX 2.04,2013-04-22 08:13:00,
2013-04-22 02:18:00,52.7,18.9,24.98,NW,323,3.0,4.0,26,0.00,,,-99.99,FreeWX 2.04,2013-04-22 08:18:00,
2013-04-22 02:23:00,52.3,19.4,24.98,NNW,342,3.0,4.0,27,0.00,,,-99.99,FreeWX 2.04,2013-04-22 08:23:00,
2013-04-22 02:28:00,51.6,20.5,24.98,NNW,344,3.0,4.9,29,0.00,,,-99.99,FreeWX 2.04,2013-04-22 08:28:00,
2013-04-22 02:33:00,51.1,22.3,24.98,NNW,342,4.0,4.9,32,0.00,,,-99.99,FreeWX 2.04,2013-04-22 08:33:00,
2013-04-22 02:38:00,50.4,23.7,24.98,NNW,330,4.0,5.8,35,0.00,,,-99.99,FreeWX 2.04,2013-04-22 08:38:00,
2013-04-22 02:43:00,50.4,23.7,24.98,NW,305,4.0,5.8,35,0.00,,,-99.99,FreeWX 2.04,2013-04-22 08:43:00,
2013-04-22 02:48:00,50.4,24.4,24.98,SW,236,5.0,7.4,36,0.00,,,-99.99,FreeWX 2.04,2013-04-22 08:48:00,
2013-04-22 02:53:00,50.2,23.5,24.95,South,181,6.0,6.9,35,0.00,,,-99.99,FreeWX 2.04,2013-04-22 08:53:00,
2013-04-22 02:58:00,50.4,21.6,24.95,South,181,6.0,8.3,32,0.00,,,-99.99,FreeWX 2.04,2013-04-22 08:58:00,
2013-04-22 03:03:00,50.7,20.5,24.95,South,190,7.0,11.6,30,0.00,,,-99.99,FreeWX 2.04,2013-04-22 09:03:00,
2013-04-22 03:08:00,50.9,19.8,24.98,SSW,196,7.0,11.0,29,0.00,,,-99.99,FreeWX 2.04,2013-04-22 09:08:00,
2013-04-22 03:13:00,50.5,20.3,24.98,South,187,6.0,6.9,30,0.00,,,-99.99,FreeWX 2.04,2013-04-22 09:13:00,
2013-04-22 03:18:00,50.7,20.5,24.98,South,181,3.0,4.9,30,0.00,,,-99.99,FreeWX 2.04,2013-04-22 09:18:00,
2013-04-22 03:23:00,50.0,21.4,24.98,South,178,1.0,3.1,32,0.00,,,-99.99,FreeWX 2.04,2013-04-22 09:23:00,
2013-04-22 03:28:00,49.8,21.2,24.98,South,174,1.0,3.6,32,0.00,,,-99.99,FreeWX 2.04,2013-04-22 09:28:00,
2013-04-22 03:33:00,49.8,21.2,24.98,South,174,1.0,3.6,32,0.00,,,-99.99,FreeWX 2.04,2013-04-22 09:33:00,
2013-04-22 03:38:00,49.8,21.2,24.95,North,-999,0.0,2.7,32,0.00,,,-99.99,FreeWX 2.04,2013-04-22 09:38:00,
2013-04-22 03:43:00,49.8,21.2,24.95,North,-999,0.0,3.1,32,0.00,,,-99.99,FreeWX 2.04,2013-04-22 09:43:00,
2013-04-22 03:48:00,49.8,21.9,24.95,South,174,1.0,4.0,33,0.00,,,-99.99,FreeWX 2.04,2013-04-22 09:48:00,
2013-04-22 03:53:00,49.8,21.2,24.95,South,174,1.0,3.1,32,0.00,,,-99.99,FreeWX 2.04,2013-04-22 09:53:00,
2013-04-22 03:58:00,49.6,21.0,24.95,South,174,1.0,3.6,32,0.00,,,-99.99,FreeWX 2.04,2013-04-22 09:58:00,
2013-04-22 04:03:00,49.3,20.7,24.95,South,174,1.0,4.0,32,0.00,,,-99.99,FreeWX 2.04,2013-04-22 10:03:00,
2013-04-22 04:08:00,49.3,20.7,24.95,South,174,1.0,2.7,32,0.00,,,-99.99,FreeWX 2.04,2013-04-22 10:08:00,
2013-04-22 04:13:00,49.1,20.5,24.95,North,-999,0.0,2.7,32,0.00,,,-99.99,FreeWX 2.04,2013-04-22 10:13:00,
2013-04-22 04:18:00,48.9,20.3,24.95,North,-999,0.0,2.7,32,0.00,,,-99.99,FreeWX 2.04,2013-04-22 10:18:00,
2013-04-22 04:23:00,48.9,21.0,24.95,South,174,1.0,3.1,33,0.00,,,-99.99,FreeWX 2.04,2013-04-22 10:23:00,
2013-04-22 04:28:00,49.3,20.7,24.95,South,174,2.0,3.6,32,0.00,,,-99.99,FreeWX 2.04,2013-04-22 10:28:00,
2013-04-22 04:33:00,49.5,20.1,24.95,South,174,2.0,3.6,31,0.00,,,-99.99,FreeWX 2.04,2013-04-22 10:33:00,
2013-04-22 04:38:00,49.3,19.9,24.95,South,174,2.0,3.6,31,0.00,,,-99.99,FreeWX 2.04,2013-04-22 10:38:00,
2013-04-22 04:43:00,49.3,19.2,24.95,South,174,1.0,0.0,30,0.00,,,-99.99,FreeWX 2.04,2013-04-22 10:43:00,
2013-04-22 04:48:00,49.1,19.8,24.95,North,-999,0.0,3.1,31,0.00,,,-99.99,FreeWX 2.04,2013-04-22 10:48:00,
2013-04-22 04:53:00,48.2,22.5,24.95,South,174,2.0,4.5,36,0.00,,,-99.99,FreeWX 2.04,2013-04-22 10:53:00,
2013-04-22 04:58:00,47.3,22.3,24.95,South,174,2.0,4.0,37,0.00,,,-99.99,FreeWX 2.04,2013-04-22 10:58:00,
2013-04-22 05:03:00,47.3,22.3,24.95,North,-999,0.0,2.7,37,0.00,,,-99.99,FreeWX 2.04,2013-04-22 11:03:00,
2013-04-22 05:08:00,47.3,23.0,24.95,North,-999,0.0,4.0,38,0.00,,,-99.99,FreeWX 2.04,2013-04-22 11:08:00,
2013-04-22 05:13:00,47.5,22.5,24.95,South,175,1.0,3.1,37,0.00,,,-99.99,FreeWX 2.04,2013-04-22 11:13:00,
2013-04-22 05:18:00,47.3,22.3,24.95,North,-999,0.0,0.0,37,0.00,,,-99.99,FreeWX 2.04,2013-04-22 11:18:00,
2013-04-22 05:23:00,47.3,22.3,24.95,North,-999,0.0,0.0,37,0.00,,,-99.99,FreeWX 2.04,2013-04-22 11:23:00,
2013-04-22 05:28:00,47.7,22.6,24.95,North,-999,0.0,0.0,37,0.00,,,-99.99,FreeWX 2.04,2013-04-22 11:28:00,
2013-04-22 05:33:00,46.4,21.6,24.95,South,175,1.0,4.9,37,0.00,,,-99.99,FreeWX 2.04,2013-04-22 11:33:00,
2013-04-22 05:38:00,47.3,22.3,24.95,South,175,2.0,4.0,37,0.00,,,-99.99,FreeWX 2.04,2013-04-22 11:38:00,
2013-04-22 05:43:00,47.5,21.2,24.95,South,175,1.0,3.1,35,0.00,,,-99.99,FreeWX 2.04,2013-04-22 11:43:00,
2013-04-22 05:48:00,47.7,19.9,24.95,South,174,1.0,4.5,33,0.00,,,-99.99,FreeWX 2.04,2013-04-22 11:48:00,
2013-04-22 05:53:00,47.7,19.9,24.95,South,171,2.0,4.5,33,0.00,,,-99.99,FreeWX 2.04,2013-04-22 11:53:00,
2013-04-22 05:58:00,48.4,19.2,24.95,SE,136,3.0,5.8,31,0.00,,,-99.99,FreeWX 2.04,2013-04-22 11:58:00,
2013-04-22 06:03:00,46.4,21.6,24.95,ESE,113,5.0,11.6,37,0.00,,,-99.99,FreeWX 2.04,2013-04-22 12:03:00,
2013-04-22 06:08:00,43.2,24.8,24.95,SSE,150,7.0,8.7,48,0.00,,,-99.99,FreeWX 2.04,2013-04-22 12:08:00,
2013-04-22 06:13:00,42.8,25.9,24.95,South,177,7.0,8.7,51,0.00,,,-99.99,FreeWX 2.04,2013-04-22 12:13:00,
2013-04-22 06:18:00,42.3,25.9,24.95,South,179,6.0,7.8,52,0.00,,,-99.99,FreeWX 2.04,2013-04-22 12:18:00,
2013-04-22 06:23:00,42.3,26.4,24.98,South,181,5.0,5.4,53,0.00,,,-99.99,FreeWX 2.04,2013-04-22 12:23:00,
2013-04-22 06:28:00,42.1,26.2,24.98,South,190,3.0,3.6,53,0.00,,,-99.99,FreeWX 2.04,2013-04-22 12:28:00,
2013-04-22 06:33:00,41.7,25.9,24.98,South,190,2.0,4.5,53,0.00,,,-99.99,FreeWX 2.04,2013-04-22 12:33:00,
2013-04-22 06:38:00,41.7,25.9,24.98,South,189,1.0,3.6,53,0.00,,,-99.99,FreeWX 2.04,2013-04-22 12:38:00,
2013-04-22 06:49:00,42.3,25.9,24.98,South,181,1.0,5.8,52,0.00,,,-99.99,FreeWX 2.04,2013-04-22 12:49:00,
2013-04-22 06:54:00,42.8,25.9,24.98,North,10,3.0,5.4,51,0.00,,,-99.99,FreeWX 2.04,2013-04-22 12:54:00,
2013-04-22 06:59:00,43.5,26.1,24.98,North,356,4.0,4.9,50,0.00,,,-99.99,FreeWX 2.04,2013-04-22 12:59:00,
2013-04-22 07:04:00,43.5,25.7,24.98,North,357,3.0,4.5,49,0.00,,,-99.99,FreeWX 2.04,2013-04-22 13:04:00,
2013-04-22 07:09:00,43.7,25.3,24.98,North,8,2.0,4.9,48,0.00,,,-99.99,FreeWX 2.04,2013-04-22 13:09:00,
2013-04-22 07:14:00,43.7,25.9,24.98,NNE,13,1.0,0.0,49,0.00,,,-99.99,FreeWX 2.04,2013-04-22 13:14:00,
2013-04-22 07:19:00,44.1,25.7,24.98,North,-999,0.0,0.0,48,0.00,,,-99.99,FreeWX 2.04,2013-04-22 13:19:00,
2013-04-22 07:24:00,45.5,27.0,24.98,North,-999,0.0,3.6,48,0.00,,,-99.99,FreeWX 2.04,2013-04-22 13:24:00,
2013-04-22 07:29:00,46.8,27.1,24.98,North,0,2.0,4.5,46,0.00,,,-99.99,FreeWX 2.04,2013-04-22 13:29:00,
2013-04-22 07:34:00,48.2,27.3,24.98,North,0,2.0,3.1,44,0.00,,,-99.99,FreeWX 2.04,2013-04-22 13:34:00,
2013-04-22 07:39:00,48.4,25.7,24.98,North,358,2.0,4.5,41,0.00,,,-99.99,FreeWX 2.04,2013-04-22 13:39:00,
2013-04-22 07:44:00,48.6,25.3,24.98,North,356,3.0,4.9,40,0.00,,,-99.99,FreeWX 2.04,2013-04-22 13:44:00,
2013-04-22 07:49:00,49.8,25.9,24.98,North,356,3.0,4.5,39,0.00,,,-99.99,FreeWX 2.04,2013-04-22 13:49:00,
2013-04-22 07:54:00,50.9,25.5,24.98,North,356,3.0,3.6,37,0.00,,,-99.99,FreeWX 2.04,2013-04-22 13:54:00,
2013-04-22 07:59:00,52.0,25.9,24.98,North,356,3.0,4.9,36,0.00,,,-99.99,FreeWX 2.04,2013-04-22 13:59:00,
2013-04-22 08:04:00,53.1,26.1,24.98,North,356,3.0,4.0,35,0.00,,,-99.99,FreeWX 2.04,2013-04-22 14:04:00,
2013-04-22 08:09:00,53.8,23.0,24.98,North,356,2.0,3.6,30,0.00,,,-99.99,FreeWX 2.04,2013-04-22 14:09:00,
2013-04-22 08:14:00,53.6,21.4,24.98,North,350,2.0,6.3,28,0.00,,,-99.99,FreeWX 2.04,2013-04-22 14:14:00,
2013-04-22 08:19:00,54.0,20.8,24.98,NW,306,3.0,4.9,27,0.00,,,-99.99,FreeWX 2.04,2013-04-22 14:19:00,
2013-04-22 08:24:00,54.1,20.8,24.98,West,273,3.0,4.5,27,0.00,,,-99.99,FreeWX 2.04,2013-04-22 14:24:00,
2013-04-22 08:29:00,54.1,21.7,24.98,West,272,3.0,5.8,28,0.00,,,-99.99,FreeWX 2.04,2013-04-22 14:29:00,
2013-04-22 08:34:00,53.6,21.4,24.98,West,260,4.0,6.9,28,0.00,,,-99.99,FreeWX 2.04,2013-04-22 14:34:00,
2013-04-22 08:39:00,52.3,21.9,24.98,WSW,252,5.0,7.8,30,0.00,,,-99.99,FreeWX 2.04,2013-04-22 14:39:00,
2013-04-22 08:44:00,51.8,22.1,24.98,West,260,6.0,7.8,31,0.00,,,-99.99,FreeWX 2.04,2013-04-22 14:44:00,
2013-04-22 08:49:00,52.5,22.8,24.98,West,264,5.0,6.3,31,0.00,,,-99.99,FreeWX 2.04,2013-04-22 14:49:00,
2013-04-22 08:54:00,53.2,22.6,24.98,West,261,4.0,5.8,30,0.00,,,-99.99,FreeWX 2.04,2013-04-22 14:54:00,
2013-04-22 08:59:00,54.5,23.7,24.98,SW,226,3.0,4.0,30,0.00,,,-99.99,FreeWX 2.04,2013-04-22 14:59:00,
2013-04-22 09:04:00,55.8,23.2,24.98,SSW,203,2.0,4.0,28,0.00,,,-99.99,FreeWX 2.04,2013-04-22 15:04:00,
2013-04-22 09:09:00,55.9,21.6,24.98,SSW,207,1.0,3.1,26,0.00,,,-99.99,FreeWX 2.04,2013-04-22 15:09:00,
2013-04-22 09:14:00,57.9,23.2,24.98,North,-999,0.0,2.7,26,0.00,,,-99.99,FreeWX 2.04,2013-04-22 15:14:00,
2013-04-22 09:19:00,56.8,21.4,24.98,SW,214,2.0,6.7,25,0.00,,,-99.99,FreeWX 2.04,2013-04-22 15:19:00,
2013-04-22 09:24:00,56.3,21.9,24.98,SW,234,4.0,7.8,26,0.00,,,-99.99,FreeWX 2.04,2013-04-22 15:24:00,
2013-04-22 09:29:00,55.9,22.5,24.98,WSW,250,4.0,6.7,27,0.00,,,-99.99,FreeWX 2.04,2013-04-22 15:29:00,
2013-04-22 09:34:00,56.5,21.0,24.98,WSW,238,4.0,6.3,25,0.00,,,-99.99,FreeWX 2.04,2013-04-22 15:34:00,
2013-04-22 09:39:00,56.5,22.1,24.98,SSW,206,5.0,10.1,26,0.00,,,-99.99,FreeWX 2.04,2013-04-22 15:39:00,
2013-04-22 09:44:00,57.2,22.6,24.98,SSW,203,6.0,7.4,26,0.00,,,-99.99,FreeWX 2.04,2013-04-22 15:44:00,
2013-04-22 09:49:00,56.8,21.4,24.98,SSW,194,6.0,9.6,25,0.00,,,-99.99,FreeWX 2.04,2013-04-22 15:49:00,
2013-04-22 09:54:00,57.2,20.7,24.98,South,182,6.0,8.3,24,0.00,,,-99.99,FreeWX 2.04,2013-04-22 15:54:00,
2013-04-22 09:59:00,57.4,21.9,24.98,South,176,6.0,9.2,25,0.00,,,-99.99,FreeWX 2.04,2013-04-22 15:59:00,
2013-04-22 10:04:00,57.9,19.4,24.98,South,179,6.0,9.2,22,0.00,,,-99.99,FreeWX 2.04,2013-04-22 16:04:00,
2013-04-22 10:09:00,58.3,19.6,24.98,South,183,6.0,10.1,22,0.00,,,-99.99,FreeWX 2.04,2013-04-22 16:09:00,
2013-04-22 10:14:00,58.3,19.6,24.98,South,182,8.0,11.2,22,0.00,,,-99.99,FreeWX 2.04,2013-04-22 16:14:00,
2013-04-22 10:19:00,58.3,16.2,24.98,South,184,8.0,11.0,19,0.00,,,-99.99,FreeWX 2.04,2013-04-22 16:19:00,
2013-04-22 10:24:00,58.6,16.5,24.98,South,181,8.0,11.2,19,0.00,,,-99.99,FreeWX 2.04,2013-04-22 16:24:00,
2013-04-22 10:29:00,59.4,14.5,24.98,South,188,8.0,11.2,17,0.00,,,-99.99,FreeWX 2.04,2013-04-22 16:29:00,
2013-04-22 10:34:00,60.1,10.8,24.98,SSW,202,8.0,12.1,14,0.00,,,-99.99,FreeWX 2.04,2013-04-22 16:34:00,
2013-04-22 10:39:00,60.4,11.1,24.98,SSW,210,9.0,13.9,14,0.00,,,-99.99,FreeWX 2.04,2013-04-22 16:39:00,
2013-04-22 10:44:00,61.7,10.4,24.98,SSW,212,9.0,12.5,13,0.00,,,-99.99,FreeWX 2.04,2013-04-22 16:44:00,
2013-04-22 10:49:00,60.8,5.9,24.98,SSW,203,9.0,15.9,11,0.00,,,-99.99,FreeWX 2.04,2013-04-22 16:49:00,
2013-04-22 10:55:00,61.5,6.6,24.98,SW,215,9.0,13.9,11,0.00,,,-99.99,FreeWX 2.04,2013-04-22 16:55:00,
2013-04-22 11:00:00,61.0,6.1,24.98,SW,227,10.0,20.1,11,0.00,,,-99.99,FreeWX 2.04,2013-04-22 17:00:00,
2013-04-22 11:05:00,61.3,6.4,24.98,SSW,210,11.0,18.1,11,0.00,,,-99.99,FreeWX 2.04,2013-04-22 17:05:00,
2013-04-22 11:10:00,61.0,-99.9,24.98,SSW,206,9.0,14.8,-999,0.00,,,-99.99,FreeWX 2.04,2013-04-22 17:10:00,
2013-04-22 11:15:00,60.6,-99.9,24.98,SW,227,9.0,13.0,-999,0.00,,,-99.99,FreeWX 2.04,2013-04-22 17:15:00,
2013-04-22 11:20:00,60.3,-99.9,24.98,WSW,237,8.0,13.9,-999,0.00,,,-99.99,FreeWX 2.04,2013-04-22 17:20:00,
2013-04-22 11:25:00,61.2,6.3,24.98,SSW,207,9.0,13.9,11,0.00,,,-99.99,FreeWX 2.04,2013-04-22 17:25:00,
2013-04-22 11:30:00,61.5,6.6,24.98,SSE,165,8.0,11.0,11,0.00,,,-99.99,FreeWX 2.04,2013-04-22 17:30:00,
2013-04-22 11:35:00,62.4,7.2,24.98,South,174,7.0,12.5,11,0.00,,,-99.99,FreeWX 2.04,2013-04-22 17:35:00,
2013-04-22 11:40:00,63.1,-99.9,24.95,South,170,8.0,13.4,-999,0.00,,,-99.99,FreeWX 2.04,2013-04-22 17:40:00,
2013-04-22 11:45:00,61.9,-99.9,24.95,SSE,165,8.0,14.8,-999,0.00,,,-99.99,FreeWX 2.04,2013-04-22 17:45:00,
2013-04-22 11:50:00,61.9,-99.9,24.95,South,187,8.0,15.2,-999,0.00,,,-99.99,FreeWX 2.04,2013-04-22 17:50:00,
2013-04-22 11:55:00,63.3,-99.9,24.95,SSW,200,9.0,15.2,-999,0.00,,,-99.99,FreeWX 2.04,2013-04-22 17:55:00,
2013-04-22 12:00:00,64.4,-99.9,24.95,SSE,168,9.0,15.9,-999,0.00,,,-99.99,FreeWX 2.04,2013-04-22 18:00:00,
2013-04-22 12:05:00,65.5,-99.9,24.95,ESE,110,8.0,13.9,-999,0.00,,,-99.99,FreeWX 2.04,2013-04-22 18:05:00,
2013-04-22 12:10:00,64.4,-99.9,24.95,SE,136,10.0,19.9,-999,0.00,,,-99.99,FreeWX 2.04,2013-04-22 18:10:00,
2013-04-22 12:15:00,66.4,-99.9,24.95,SE,144,11.0,18.1,-999,0.00,,,-99.99,FreeWX 2.04,2013-04-22 18:15:00,
2013-04-22 12:20:00,63.9,-99.9,24.95,ESE,117,9.0,19.0,-999,0.00,,,-99.99,FreeWX 2.04,2013-04-22 18:20:00,
2013-04-22 12:25:00,65.5,-99.9,24.95,ESE,121,7.0,14.8,-999,0.00,,,-99.99,FreeWX 2.04,2013-04-22 18:25:00,
2013-04-22 12:30:00,65.7,-99.9,24.95,SSE,153,8.0,15.2,-999,0.00,,,-99.99,FreeWX 2.04,2013-04-22 18:30:00,
2013-04-22 12:35:00,66.4,-99.9,24.95,SSE,166,9.0,17.7,-999,0.00,,,-99.99,FreeWX 2.04,2013-04-22 18:35:00,
2013-04-22 12:40:00,65.5,-99.9,24.92,SE,127,9.0,15.9,-999,0.00,,,-99.99,FreeWX 2.04,2013-04-22 18:40:00,
2013-04-22 12:45:00,67.3,-99.9,24.92,ESE,105,9.0,19.5,-999,0.00,,,-99.99,FreeWX 2.04,2013-04-22 18:45:00,
2013-04-22 12:50:00,65.7,-99.9,24.92,SE,146,11.0,21.9,-999,0.00,,,-99.99,FreeWX 2.04,2013-04-22 18:50:00,
2013-04-22 12:55:00,66.6,-99.9,24.92,SSE,156,11.0,15.9,-999,0.00,,,-99.99,FreeWX 2.04,2013-04-22 18:55:00,
2013-04-22 13:00:00,67.1,-99.9,24.92,ESE,112,9.0,20.6,-999,0.00,,,-99.99,FreeWX 2.04,2013-04-22 19:00:00,
2013-04-22 13:05:00,65.8,-99.9,24.92,ESE,119,12.0,24.2,-999,0.00,,,-99.99,FreeWX 2.04,2013-04-22 19:05:00,
2013-04-22 13:10:00,67.1,-99.9,24.92,ESE,120,14.0,19.0,-999,0.00,,,-99.99,FreeWX 2.04,2013-04-22 19:10:00,
2013-04-22 13:15:00,67.3,-99.9,24.92,ESE,114,12.0,24.4,-999,0.00,,,-99.99,FreeWX 2.04,2013-04-22 19:15:00,
2013-04-22 13:20:00,67.6,-99.9,24.92,ESE,123,10.0,15.4,-999,0.00,,,-99.99,FreeWX 2.04,2013-04-22 19:20:00,
2013-04-22 13:25:00,67.3,-99.9,24.92,SE,127,10.0,24.8,-999,0.00,,,-99.99,FreeWX 2.04,2013-04-22 19:25:00,
2013-04-22 13:30:00,66.9,-99.9,24.92,SE,124,11.0,16.3,-999,0.00,,,-99.99,FreeWX 2.04,2013-04-22 19:30:00,
2013-04-22 13:35:00,66.0,-99.9,24.92,ESE,116,11.0,21.5,-999,0.00,,,-99.99,FreeWX 2.04,2013-04-22 19:35:00,
2013-04-22 13:40:00,66.4,-99.9,24.92,SE,142,12.0,19.0,-999,0.00,,,-99.99,FreeWX 2.04,2013-04-22 19:40:00,
2013-04-22 13:45:00,66.7,-99.9,24.92,SSE,162,14.0,21.9,-999,0.00,,,-99.99,FreeWX 2.04,2013-04-22 19:45:00,
2013-04-22 13:50:00,68.4,-99.9,24.92,SE,138,12.0,21.9,-999,0.00,,,-99.99,FreeWX 2.04,2013-04-22 19:50:00,
2013-04-22 13:55:00,67.6,-99.9,24.89,ESE,114,10.0,19.9,-999,0.00,,,-99.99,FreeWX 2.04,2013-04-22 19:55:00,
2013-04-22 14:00:00,67.8,-99.9,24.89,ESE,113,11.0,26.2,-999,0.00,,,-99.99,FreeWX 2.04,2013-04-22 20:00:00,
2013-04-22 14:05:00,67.1,-99.9,24.89,SE,124,13.0,22.8,-999,0.00,,,-99.99,FreeWX 2.04,2013-04-22 20:05:00,
2013-04-22 14:10:00,66.4,-99.9,24.92,SE,134,12.0,29.5,-999,0.00,,,-99.99,FreeWX 2.04,2013-04-22 20:10:00,
2013-04-22 14:15:00,67.6,-99.9,24.92,SE,137,10.0,13.9,-999,0.00,,,-99.99,FreeWX 2.04,2013-04-22 20:15:00,
2013-04-22 14:20:00,67.1,-99.9,24.92,SSE,155,12.0,24.2,-999,0.00,,,-99.99,FreeWX 2.04,2013-04-22 20:20:00,
2013-04-22 14:25:00,67.3,-99.9,24.89,SSE,161,15.0,24.8,-999,0.00,,,-99.99,FreeWX 2.04,2013-04-22 20:25:00,
2013-04-22 14:30:00,67.1,-99.9,24.89,SSE,152,14.0,28.6,-999,0.00,,,-99.99,FreeWX 2.04,2013-04-22 20:30:00,
2013-04-22 14:35:00,68.0,-99.9,24.89,SSE,149,14.0,19.5,-999,0.00,,,-99.99,FreeWX 2.04,2013-04-22 20:35:00,
2013-04-22 14:40:00,68.4,-99.9,24.89,SSE,161,13.0,22.8,-999,0.00,,,-99.99,FreeWX 2.04,2013-04-22 20:40:00,
2013-04-22 14:45:00,68.0,-99.9,24.89,SSE,168,15.0,28.0,-999,0.00,,,-99.99,FreeWX 2.04,2013-04-22 20:45:00,
2013-04-22 14:50:00,67.5,-99.9,24.89,SSE,164,18.0,29.1,-999,0.00,,,-99.99,FreeWX 2.04,2013-04-22 20:50:00,
2013-04-22 14:55:00,67.8,-99.9,24.89,SSE,159,17.0,26.6,-999,0.00,,,-99.99,FreeWX 2.04,2013-04-22 20:55:00,
2013-04-22 15:00:00,68.7,-99.9,24.89,SSE,157,14.0,28.4,-999,0.00,,,-99.99,FreeWX 2.04,2013-04-22 21:00:00,
2013-04-22 15:05:00,67.1,-99.9,24.89,SSE,155,14.0,25.7,-999,0.00,,,-99.99,FreeWX 2.04,2013-04-22 21:05:00,
2013-04-22 15:10:00,68.0,-99.9,24.89,SSE,153,14.0,22.8,-999,0.00,,,-99.99,FreeWX 2.04,2013-04-22 21:10:00,
2013-04-22 15:15:00,68.4,-99.9,24.89,SSE,168,15.0,21.0,-999,0.00,,,-99.99,FreeWX 2.04,2013-04-22 21:15:00,
2013-04-22 15:20:00,68.5,-99.9,24.89,SSE,164,13.0,20.6,-999,0.00,,,-99.99,FreeWX 2.04,2013-04-22 21:20:00,
2013-04-22 15:25:00,68.4,-99.9,24.86,SSE,147,12.0,24.4,-999,0.00,,,-99.99,FreeWX 2.04,2013-04-22 21:25:00,
2013-04-22 15:30:00,68.0,-99.9,24.86,SSE,158,15.0,24.4,-999,0.00,,,-99.99,FreeWX 2.04,2013-04-22 21:30:00,
2013-04-22 15:35:00,67.6,-99.9,24.86,SSE,159,16.0,27.1,-999,0.00,,,-99.99,FreeWX 2.04,2013-04-22 21:35:00,
2013-04-22 15:40:00,68.5,-99.9,24.86,SSE,158,16.0,24.4,-999,0.00,,,-99.99,FreeWX 2.04,2013-04-22 21:40:00,
2013-04-22 15:45:00,70.0,-99.9,24.86,South,172,14.0,16.8,-999,0.00,,,-99.99,FreeWX 2.04,2013-04-22 21:45:00,
2013-04-22 15:50:00,69.1,-99.9,24.86,South,169,13.0,24.4,-999,0.00,,,-99.99,FreeWX 2.04,2013-04-22 21:50:00,
2013-04-22 15:55:00,68.5,-99.9,24.86,SSE,148,14.0,21.0,-999,0.00,,,-99.99,FreeWX 2.04,2013-04-22 21:55:00,
2013-04-22 16:00:00,69.3,-99.9,24.86,SE,137,13.0,24.2,-999,0.00,,,-99.99,FreeWX 2.04,2013-04-22 22:00:00,
2013-04-22 16:05:00,68.9,-99.9,24.86,SE,143,12.0,28.4,-999,0.00,,,-99.99,FreeWX 2.04,2013-04-22 22:05:00,
2013-04-22 16:10:00,69.8,-99.9,24.86,SE,139,12.0,20.1,-999,0.00,,,-99.99,FreeWX 2.04,2013-04-22 22:10:00,
2013-04-22 16:15:00,68.5,-99.9,24.86,SE,143,14.0,28.4,-999,0.00,,,-99.99,FreeWX 2.04,2013-04-22 22:15:00,
2013-04-22 16:21:00,69.3,-99.9,24.86,SSE,152,14.0,20.6,-999,0.00,,,-99.99,FreeWX 2.04,2013-04-22 22:21:00,
2013-04-22 16:26:00,69.3,-99.9,24.83,SE,130,13.0,22.4,-999,0.00,,,-99.99,FreeWX 2.04,2013-04-22 22:26:00,
2013-04-22 16:31:00,68.9,-99.9,24.83,ESE,114,16.0,25.3,-999,0.00,,,-99.99,FreeWX 2.04,2013-04-22 22:31:00,
2013-04-22 16:36:00,65.3,-99.9,24.83,SE,139,19.0,30.4,-999,0.00,,,-99.99,FreeWX 2.04,2013-04-22 22:36:00,
2013-04-22 16:41:00,64.6,-99.9,24.86,SSE,165,19.0,24.8,-999,0.00,,,-99.99,FreeWX 2.04,2013-04-22 22:41:00,
2013-04-22 16:46:00,65.1,-99.9,24.86,SSE,165,18.0,24.2,-999,0.00,,,-99.99,FreeWX 2.04,2013-04-22 22:46:00,
2013-04-22 16:51:00,64.0,-99.9,24.86,South,172,18.0,25.7,-999,0.00,,,-99.99,FreeWX 2.04,2013-04-22 22:51:00,
2013-04-22 16:56:00,63.7,-99.9,24.86,South,185,18.0,24.2,-999,0.00,,,-99.99,FreeWX 2.04,2013-04-22 22:56:00,
2013-04-22 17:01:00,64.4,-99.9,24.86,South,186,17.0,22.8,-999,0.00,,,-99.99,FreeWX 2.04,2013-04-22 23:01:00,
2013-04-22 17:06:00,63.5,-99.9,24.86,South,179,16.0,25.3,-999,0.00,,,-99.99,FreeWX 2.04,2013-04-22 23:06:00,
2013-04-22 17:11:00,63.0,-99.9,24.86,South,176,17.0,25.7,-999,0.00,,,-99.99,FreeWX 2.04,2013-04-22 23:11:00,
2013-04-22 17:16:00,63.3,-99.9,24.86,South,171,16.0,22.4,-999,0.00,,,-99.99,FreeWX 2.04,2013-04-22 23:16:00,
2013-04-22 17:21:00,63.3,-99.9,24.86,South,171,14.0,21.9,-999,0.00,,,-99.99,FreeWX 2.04,2013-04-22 23:21:00,
2013-04-22 17:26:00,63.3,-99.9,24.86,South,176,15.0,19.9,-999,0.00,,,-99.99,FreeWX 2.04,2013-04-22 23:26:00,
2013-04-22 17:31:00,63.1,-99.9,24.86,South,175,15.0,23.3,-999,0.00,,,-99.99,FreeWX 2.04,2013-04-22 23:31:00,
2013-04-22 17:36:00,63.3,-99.9,24.86,South,175,15.0,24.4,-999,0.00,,,-99.99,FreeWX 2.04,2013-04-22 23:36:00,
2013-04-22 17:41:00,63.1,-99.9,24.86,South,179,16.0,25.3,-999,0.00,,,-99.99,FreeWX 2.04,2013-04-22 23:41:00,
2013-04-22 17:46:00,62.8,-99.9,24.86,South,180,18.0,24.8,-999,0.00,,,-99.99,FreeWX 2.04,2013-04-22 23:46:00,
2013-04-22 17:51:00,61.9,-99.9,24.86,South,180,18.0,24.8,-999,0.00,,,-99.99,FreeWX 2.04,2013-04-22 23:51:00,
2013-04-22 17:56:00,61.2,-99.9,24.86,South,186,18.0,23.7,-999,0.00,,,-99.99,FreeWX 2.04,2013-04-22 23:56:00,
2013-04-22 18:01:00,61.7,-99.9,24.86,South,188,19.0,24.8,-999,0.00,,,-99.99,FreeWX 2.04,2013-04-23 00:01:00,
2013-04-22 18:06:00,61.7,-99.9,24.86,South,183,17.0,19.5,-999,0.00,,,-99.99,FreeWX 2.04,2013-04-23 00:06:00,
2013-04-22 18:11:00,61.3,-99.9,24.89,South,180,14.0,18.1,-999,0.00,,,-99.99,FreeWX 2.04,2013-04-23 00:11:00,
2013-04-22 18:16:00,61.3,-99.9,24.89,South,184,14.0,19.0,-999,0.00,,,-99.99,FreeWX 2.04,2013-04-23 00:16:00,
2013-04-22 18:21:00,61.0,-99.9,24.89,South,191,16.0,21.9,-999,0.00,,,-99.99,FreeWX 2.04,2013-04-23 00:21:00,
2013-04-22 18:26:00,61.2,-99.9,24.89,SSW,194,16.0,23.7,-999,0.00,,,-99.99,FreeWX 2.04,2013-04-23 00:26:00,
2013-04-22 18:31:00,60.4,-99.9,24.89,SSW,192,15.0,21.9,-999,0.00,,,-99.99,FreeWX 2.04,2013-04-23 00:31:00,
2013-04-22 18:36:00,60.1,-99.9,24.89,South,190,16.0,20.1,-999,0.00,,,-99.99,FreeWX 2.04,2013-04-23 00:36:00,
2013-04-22 18:41:00,60.3,-99.9,24.89,South,181,14.0,18.1,-999,0.00,,,-99.99,FreeWX 2.04,2013-04-23 00:41:00,
2013-04-22 18:46:00,60.3,-99.9,24.89,South,178,12.0,23.7,-999,0.00,,,-99.99,FreeWX 2.04,2013-04-23 00:46:00,
2013-04-22 18:51:00,59.9,-99.9,24.89,South,189,13.0,20.1,-999,0.00,,,-99.99,FreeWX 2.04,2013-04-23 00:51:00,
2013-04-22 18:56:00,59.9,-99.9,24.89,SSW,198,13.0,18.6,-999,0.00,,,-99.99,FreeWX 2.04,2013-04-23 00:56:00,
2013-04-22 19:01:00,59.4,-99.9,24.89,SSW,195,13.0,20.1,-999,0.00,,,-99.99,FreeWX 2.04,2013-04-23 01:01:00,
2013-04-22 19:06:00,59.2,-99.9,24.89,South,191,13.0,19.5,-999,0.00,,,-99.99,FreeWX 2.04,2013-04-23 01:06:00,
2013-04-22 19:11:00,59.0,-99.9,24.89,SSW,196,13.0,17.7,-999,0.00,,,-99.99,FreeWX 2.04,2013-04-23 01:11:00,
2013-04-22 19:16:00,58.6,-99.9,24.89,SSW,198,12.0,15.9,-999,0.00,,,-99.99,FreeWX 2.04,2013-04-23 01:16:00,
2013-04-22 19:21:00,58.5,-99.9,24.89,SSW,197,12.0,14.8,-999,0.00,,,-99.99,FreeWX 2.04,2013-04-23 01:21:00,
2013-04-22 19:26:00,58.3,-99.9,24.89,SSW,198,10.0,14.3,-999,0.00,,,-99.99,FreeWX 2.04,2013-04-23 01:26:00,
2013-04-22 19:31:00,58.3,-99.9,24.89,SSW,199,10.0,15.4,-999,0.00,,,-99.99,FreeWX 2.04,2013-04-23 01:31:00,
2013-04-22 19:36:00,58.1,-99.9,24.89,SSW,194,10.0,13.0,-999,0.00,,,-99.99,FreeWX 2.04,2013-04-23 01:36:00,
2013-04-22 19:41:00,57.9,-99.9,24.89,South,189,10.0,13.0,-999,0.00,,,-99.99,FreeWX 2.04,2013-04-23 01:41:00,
2013-04-22 19:46:00,57.6,-99.9,24.89,South,186,8.0,11.6,-999,0.00,,,-99.99,FreeWX 2.04,2013-04-23 01:46:00,
2013-04-22 19:51:00,57.6,-99.9,24.89,South,182,8.0,11.0,-999,0.00,,,-99.99,FreeWX 2.04,2013-04-23 01:51:00,
2013-04-22 19:56:00,57.2,-99.9,24.89,South,179,7.0,10.1,-999,0.00,,,-99.99,FreeWX 2.04,2013-04-23 01:56:00,
2013-04-22 20:01:00,56.8,-99.9,24.89,South,178,7.0,8.7,-999,0.00,,,-99.99,FreeWX 2.04,2013-04-23 02:01:00,
2013-04-22 20:06:00,56.8,-99.9,24.89,South,176,7.0,11.2,-999,0.00,,,-99.99,FreeWX 2.04,2013-04-23 02:06:00,
2013-04-22 20:11:00,56.8,-99.9,24.92,South,177,9.0,15.9,-999,0.00,,,-99.99,FreeWX 2.04,2013-04-23 02:11:00,
2013-04-22 20:16:00,56.7,-99.9,24.92,South,184,10.0,16.3,-999,0.00,,,-99.99,FreeWX 2.04,2013-04-23 02:16:00,
2013-04-22 20:21:00,56.5,-99.9,24.92,South,189,10.0,12.1,-999,0.00,,,-99.99,FreeWX 2.04,2013-04-23 02:21:00,
2013-04-22 20:26:00,56.1,-99.9,24.92,South,184,9.0,12.5,-999,0.00,,,-99.99,FreeWX 2.04,2013-04-23 02:26:00,
2013-04-22 20:31:00,55.9,-99.9,24.92,South,181,9.0,12.1,-999,0.00,,,-99.99,FreeWX 2.04,2013-04-23 02:31:00,
2013-04-22 20:36:00,55.6,-99.9,24.92,South,178,9.0,11.6,-999,0.00,,,-99.99,FreeWX 2.04,2013-04-23 02:36:00,
2013-04-22 20:41:00,55.6,-99.9,24.92,South,169,8.0,12.1,-999,0.00,,,-99.99,FreeWX 2.04,2013-04-23 02:41:00,
2013-04-22 20:46:00,55.4,-99.9,24.92,SSE,166,8.0,13.0,-999,0.00,,,-99.99,FreeWX 2.04,2013-04-23 02:46:00,
2013-04-22 20:51:00,55.2,-99.9,24.92,South,170,8.0,11.0,-999,0.00,,,-99.99,FreeWX 2.04,2013-04-23 02:51:00,
2013-04-22 20:56:00,55.0,-99.9,24.92,South,172,7.0,10.5,-999,0.00,,,-99.99,FreeWX 2.04,2013-04-23 02:56:00,
2013-04-22 21:01:00,55.0,-99.9,24.92,South,170,7.0,10.1,-999,0.00,,,-99.99,FreeWX 2.04,2013-04-23 03:01:00,
2013-04-22 21:06:00,55.0,-99.9,24.92,South,169,8.0,14.8,-999,0.00,,,-99.99,FreeWX 2.04,2013-04-23 03:06:00,
2013-04-22 21:11:00,55.0,-99.9,24.92,South,175,8.0,12.1,-999,0.00,,,-99.99,FreeWX 2.04,2013-04-23 03:11:00,
2013-04-22 21:16:00,54.9,3.2,24.92,South,182,8.0,12.1,12,0.00,,,-99.99,FreeWX 2.04,2013-04-23 03:16:00,
2013-04-22 21:21:00,54.7,3.0,24.92,South,177,8.0,11.6,12,0.00,,,-99.99,FreeWX 2.04,2013-04-23 03:21:00,
2013-04-22 21:26:00,54.9,3.2,24.95,South,178,7.0,11.2,12,0.00,,,-99.99,FreeWX 2.04,2013-04-23 03:26:00,
2013-04-22 21:31:00,54.9,3.2,24.95,South,184,8.0,11.2,12,0.00,,,-99.99,FreeWX 2.04,2013-04-23 03:31:00,
2013-04-22 21:36:00,55.0,-99.9,24.95,South,187,9.0,15.2,-999,0.00,,,-99.99,FreeWX 2.04,2013-04-23 03:36:00,
2013-04-22 21:41:00,54.9,-99.9,24.95,South,191,10.0,17.7,-999,0.00,,,-99.99,FreeWX 2.04,2013-04-23 03:41:00,
2013-04-22 21:46:00,54.5,3.0,24.95,SSW,197,14.0,24.2,12,0.00,,,-99.99,FreeWX 2.04,2013-04-23 03:46:00,
2013-04-22 21:51:00,54.1,4.5,24.95,SSW,203,16.0,28.0,13,0.00,,,-99.99,FreeWX 2.04,2013-04-23 03:51:00,
2013-04-22 21:56:00,53.4,3.9,24.98,SSW,206,16.0,25.7,13,0.00,,,-99.99,FreeWX 2.04,2013-04-23 03:56:00,
2013-04-22 22:01:00,52.5,3.2,24.98,SSW,210,16.0,27.5,13,0.00,,,-99.99,FreeWX 2.04,2013-04-23 04:01:00,
2013-04-22 22:06:00,52.5,3.2,24.98,SSW,211,16.0,22.8,13,0.00,,,-99.99,FreeWX 2.04,2013-04-23 04:06:00,
2013-04-22 22:11:00,52.5,7.7,24.98,SSW,205,15.0,19.9,16,0.00,,,-99.99,FreeWX 2.04,2013-04-23 04:11:00,
2013-04-22 22:17:00,52.0,7.2,24.98,SSW,198,13.0,18.6,16,0.00,,,-99.99,FreeWX 2.04,2013-04-23 04:17:00,
2013-04-22 22:22:00,51.8,7.0,24.98,SSW,195,12.0,21.9,16,0.00,,,-99.99,FreeWX 2.04,2013-04-23 04:22:00,
2013-04-22 22:27:00,51.6,7.0,24.98,SSW,205,14.0,22.4,16,0.00,,,-99.99,FreeWX 2.04,2013-04-23 04:27:00,
2013-04-22 22:32:00,51.3,6.6,24.98,SSW,204,14.0,18.6,16,0.00,,,-99.99,FreeWX 2.04,2013-04-23 04:32:00,
2013-04-22 22:37:00,50.9,10.2,24.98,SSW,203,11.0,14.8,19,0.00,,,-99.99,FreeWX 2.04,2013-04-23 04:37:00,
2013-04-22 22:42:00,50.5,12.0,25.01,SSW,194,9.0,17.7,21,0.00,,,-99.99,FreeWX 2.04,2013-04-23 04:42:00,
2013-04-22 22:47:00,50.5,12.0,25.01,SSE,161,8.0,10.1,21,0.00,,,-99.99,FreeWX 2.04,2013-04-23 04:47:00,
2013-04-22 22:52:00,50.7,12.2,25.01,South,178,6.0,9.6,21,0.00,,,-99.99,FreeWX 2.04,2013-04-23 04:52:00,
2013-04-22 22:57:00,50.7,12.2,25.01,SSW,202,7.0,15.2,21,0.00,,,-99.99,FreeWX 2.04,2013-04-23 04:57:00,
2013-04-22 23:02:00,50.4,11.8,25.01,SSW,196,10.0,16.8,21,0.00,,,-99.99,FreeWX 2.04,2013-04-23 05:02:00,
2013-04-22 23:07:00,50.2,11.8,25.01,SSW,204,12.0,16.8,21,0.00,,,-99.99,FreeWX 2.04,2013-04-23 05:07:00,
2013-04-22 23:12:00,50.4,11.8,25.01,SSW,199,11.0,15.9,21,0.00,,,-99.99,FreeWX 2.04,2013-04-23 05:12:00,
2013-04-22 23:17:00,50.2,11.8,25.01,South,190,9.0,14.8,21,0.00,,,-99.99,FreeWX 2.04,2013-04-23 05:17:00,
2013-04-22 23:22:00,50.0,9.3,25.01,SSW,199,8.0,13.9,19,0.00,,,-99.99,FreeWX 2.04,2013-04-23 05:22:00,
2013-04-22 23:27:00,49.6,11.3,25.01,SSW,205,10.0,15.4,21,0.00,,,-99.99,FreeWX 2.04,2013-04-23 05:27:00,
2013-04-22 23:32:00,49.5,9.0,25.01,SSW,202,12.0,17.2,19,0.00,,,-99.99,FreeWX 2.04,2013-04-23 05:32:00,
2013-04-22 23:37:00,49.3,8.8,25.01,SSW,198,13.0,19.5,19,0.00,,,-99.99,FreeWX 2.04,2013-04-23 05:37:00,
2013-04-22 23:42:00,49.1,8.6,25.01,SSW,200,12.0,15.2,19,0.00,,,-99.99,FreeWX 2.04,2013-04-23 05:42:00,
2013-04-22 23:47:00,49.1,10.9,25.01,SSW,204,9.0,11.0,21,0.00,,,-99.99,FreeWX 2.04,2013-04-23 05:47:00,
2013-04-22 23:52:00,49.1,8.6,25.01,SSW,202,8.0,12.5,19,0.00,,,-99.99,FreeWX 2.04,2013-04-23 05:52:00,
2013-04-22 23:57:00,48.9,8.4,25.01,SSW,206,7.0,9.2,19,0.00,,,-99.99,FreeWX 2.04,2013-04-23 05:57:00,